Temp
49 49 48 49 48 48 48 47 46 47 48 49 49 49 48 47 48 48 48 51 49 52 51 48 52 52 51 49 49 48 48 45 43 45 45 45 46 44 43 44 45 44 44 44 45 45 45 45 46 46 46 47 47 48 48 48 48 49 49 49 50 50 50 50 50 50 50 49 51 51 50 50 50 51
48 47 47 48 47 46 47 45 45 46 47 47 48 48 47 48 47 47 45 46 50 50 53 52 49 51 49 48 46 47 47 43 43 45 45 45 46 43 42 43 43 43 44 44 44 44 44 45 45 45 45 46 46 47 47 47 48 48 49 50 49 49 49 50 49 48 49 49 49 50 49 50 50 49
47 46 45 47 46 46 45 45 44 44 45 45 46 46 46 46 45 45 44 43 50 51 47 50 51 48 47 46 46 46 46 44 43 45 45 45 42 39 42 42 43 43 44 44 43 44 44 45 45 45 45 45 46 46 46 46 46 47 48 48 48 49 48 48 47 48 48 49 49 49 50 50 50 48
46 45 44 45 45 45 45 45 44 44 44 44 45 45 45 44 43 43 42 42 43 49 47 47 47 47 45 45 44 45 45 44 40 45 44 44 41 44 44 42 42 42 43 42 42 43 44 44 44 44 44 44 45 45 45 45 45 46 47 47 48 47 47 46 47 46 46 47 48 48 48 49 50 50
44 45 44 43 42 44 44 44 44 43 42 43 43 43 43 43 42 41 41 40 41 45 48 45 45 46 45 43 45 43 43 43 44 42 44 44 43 43 43 43 41 41 41 41 41 43 43 43 43 43 43 43 43 43 44 43 44 45 45 46 46 46 46 46 46 46 46 46 47 48 48 49 49 50
43 43 42 41 41 42 42 42 42 42 42 42 42 42 41 42 40 41 38 39 39 39 44 43 45 44 45 41 45 42 41 41 42 42 42 43 43 42 43 42 42 40 40 41 42 42 42 42 42 42 41 42 42 43 44 43 42 43 44 44 44 44 45 45 44 44 44 46 46 47 47 48 48 49
42 42 41 41 40 40 40 40 40 40 40 41 41 40 41 40 39 39 38 37 37 37 38 41 41 42 42 41 41 42 42 42 42 40 41 41 41 42 42 41 41 40 40 41 41 41 41 41 41 41 41 41 42 42 42 43 43 42 43 43 43 43 43 43 44 43 44 44 45 45 46 46 47 48
42 41 40 40 40 40 40 39 40 40 40 40 40 39 39 39 37 37 37 37 36 36 35 40 39 40 39 41 42 42 42 41 40 40 40 42 41 40 40 40 40 40 40 40 40 40 40 40 40 40 40 41 41 42 42 42 42 42 42 42 42 42 42 42 42 43 42 43 44 43 44 45 47 47
41 41 40 40 40 40 39 39 39 39 37 39 39 38 38 37 37 37 38 38 37 36 35 37 39 40 41 41 42 42 39 39 40 40 40 39 38 38 39 39 39 39 39 39 38 39 39 39 39 40 40 40 41 42 42 42 41 41 41 40 40 41 42 42 42 41 41 43 43 42 43 44 49 49
40 40 39 39 39 39 39 38 38 37 36 37 37 36 36 36 36 37 37 37 36 36 36 36 36 40 38 39 41 41 40 37 36 37 38 37 37 35 35 37 38 39 38 38 38 37 38 37 38 39 39 40 41 41 41 41 41 39 39 39 40 41 42 42 41 40 40 42 43 43 42 42 46 47
39 39 38 38 38 37 38 37 37 37 36 36 36 36 35 36 36 36 37 37 36 36 36 37 38 37 39 39 37 40 39 38 37 34 31 30 34 33 33 32 35 36 37 37 37 37 36 36 36 37 39 40 40 40 40 40 40 39 39 39 40 41 42 41 41 40 41 41 42 42 41 40 42 44
37 37 37 37 37 37 37 37 37 37 37 36 36 36 36 36 35 35 35 36 36 35 35 35 35 37 36 38 39 39 38 35 33 32 29 26 28 30 32 34 32 33 35 33 34 35 36 36 37 37 38 39 40 39 40 39 38 37 39 40 41 42 41 40 41 41 40 40 40 41 41 40 39 41
36 36 36 36 35 34 32 32 33 34 34 35 36 36 36 35 35 35 34 33 34 34 34 33 36 35 35 36 35 33 32 30 29 30 30 27 29 30 29 31 35 33 31 31 31 31 33 33 33 36 35 37 38 39 38 38 37 38 39 39 41 41 41 41 40 40 40 40 40 40 39 39 39 39
35 35 34 33 30 30 31 31 32 32 32 33 35 35 35 34 33 31 31 31 32 31 31 31 32 30 30 33 33 31 31 31 30 28 27 26 28 28 27 29 32 32 31 28 28 30 33 32 32 34 34 36 37 38 38 37 37 37 38 39 41 41 40 40 40 39 40 40 40 39 39 39 39 38
34 34 33 33 31 31 30 31 31 32 32 33 33 32 32 32 32 30 28 29 30 30 29 30 29 30 30 31 33 31 30 29 28 27 27 26 26 24 23 21 26 33 30 27 26 27 32 32 30 32 33 34 36 37 36 37 37 38 38 39 40 41 40 40 40 40 40 40 40 39 39 39 39 39
34 33 33 33 33 34 34 34 33 32 31 32 32 31 30 30 30 31 30 28 27 28 27 27 28 29 29 30 29 30 28 26 26 27 26 25 24 23 22 22 21 28 30 26 25 26 31 32 31 31 32 34 35 36 36 37 38 38 38 38 40 40 40 40 40 40 40 40 40 39 39 38 38 38
34 34 33 32 32 32 29 31 33 33 33 32 30 29 29 29 29 29 30 30 30 30 27 26 27 29 30 28 29 29 27 28 25 25 24 24 24 23 22 23 23 25 29 27 25 24 28 31 30 29 32 34 33 34 35 37 37 38 38 37 39 39 39 39 40 40 40 39 39 39 38 38 38 38
34 34 33 32 32 32 32 33 33 33 33 33 31 31 31 32 31 30 29 29 29 30 30 29 26 30 31 28 29 30 29 25 23 23 22 24 22 21 21 23 24 26 29 26 24 22 26 30 29 28 30 32 32 32 34 37 37 37 37 36 39 39 38 39 38 38 39 39 39 38 38 38 37 37
33 33 33 33 33 33 32 32 32 32 32 30 28 27 27 30 31 31 31 31 31 31 30 30 30 30 30 30 29 29 29 27 26 25 24 23 22 23 25 25 27 27 30 28 25 19 25 29 27 27 29 30 30 32 34 36 36 36 36 36 38 38 38 38 38 37 38 38 38 37 37 37 37 37
32 32 31 31 32 31 31 31 31 32 32 28 26 25 25 25 26 28 29 29 30 30 30 29 29 27 28 28 27 28 27 27 26 25 25 24 24 22 20 20 23 23 27 28 26 22 23 27 25 25 28 29 28 30 33 35 35 35 35 36 37 37 38 38 38 37 37 37 37 37 36 36 36 36
31 31 31 31 31 30 30 31 31 31 30 28 25 24 23 22 23 25 28 29 28 28 27 26 26 26 26 27 27 27 27 27 25 23 21 20 21 18 17 18 20 21 24 26 27 23 21 25 24 23 26 26 27 28 31 31 33 34 34 35 36 37 38 37 37 37 37 36 36 36 36 35 35 34
30 30 28 29 30 30 31 30 30 30 29 26 25 23 21 21 22 25 26 26 25 25 24 23 23 24 24 25 25 26 26 25 24 21 17 19 19 17 18 16 18 20 23 25 27 22 21 24 25 22 24 25 28 29 30 30 31 32 31 33 35 35 36 37 36 36 36 36 35 35 35 34 34 32
30 29 28 28 30 30 31 30 30 29 29 26 25 23 22 22 21 24 24 22 19 19 18 20 21 22 23 24 24 25 24 24 23 23 21 21 19 17 17 18 18 16 20 25 26 20 20 21 23 22 19 17 24 29 28 29 30 30 28 28 30 33 33 34 36 35 35 35 35 34 34 34 32 30
27 28 28 28 29 30 30 29 29 28 29 26 25 25 23 22 21 24 21 19 18 17 18 17 19 19 21 22 22 22 22 22 23 22 22 21 20 18 18 18 18 16 18 24 26 21 22 22 20 22 20 16 15 21 25 26 29 28 27 26 27 29 30 30 31 34 34 34 34 34 34 33 32 29
25 25 27 29 29 29 29 28 28 28 27 27 25 25 23 23 23 22 19 17 18 16 16 17 19 20 21 20 21 21 21 23 22 21 22 21 21 20 18 17 17 18 20 24 27 22 19 20 18 19 18 18 18 18 22 23 28 27 26 25 25 26 26 27 28 28 31 33 34 34 33 33 32 30
25 26 27 28 28 28 28 27 27 27 27 26 26 25 25 23 22 19 18 18 18 18 19 20 20 20 20 20 19 19 20 21 22 19 19 20 20 21 22 20 18 16 17 23 26 23 19 17 18 16 17 16 16 19 17 20 26 27 26 25 24 24 25 25 27 27 27 27 28 30 30 32 32 32
25 27 27 28 28 27 27 27 27 26 26 25 25 24 23 21 19 18 19 17 17 18 18 18 18 18 19 18 18 19 20 20 19 19 19 18 19 20 21 22 22 21 22 23 25 23 21 18 20 17 15 16 15 17 18 18 22 26 25 23 22 22 23 24 25 25 26 27 26 29 29 29 30 30
27 26 27 27 27 27 26 26 26 25 25 25 23 22 21 19 17 18 17 17 17 16 17 17 17 17 18 18 18 18 18 18 17 16 17 18 18 19 20 21 22 23 23 24 24 23 21 19 19 20 19 16 15 14 14 20 24 23 21 23 22 21 22 22 23 23 25 25 25 25 26 25 27 27
27 27 27 27 26 26 26 25 24 23 22 22 21 20 18 17 18 17 17 16 16 16 16 16 16 16 17 17 17 17 16 16 18 18 19 19 20 20 21 22 23 24 24 24 23 23 21 20 18 19 19 19 17 18 19 18 21 20 21 20 18 19 20 21 21 21 22 23 24 23 22 24 24 25
27 27 27 26 26 25 24 23 21 21 21 19 18 17 16 16 17 16 16 15 15 15 15 14 14 15 16 17 16 16 17 17 17 17 17 18 19 20 20 20 21 24 24 24 23 23 21 20 19 18 18 19 19 18 19 18 20 20 20 19 19 21 20 19 19 20 22 22 22 22 23 24 24 24
26 26 25 24 24 23 22 20 19 18 17 17 17 17 16 16 16 15 15 14 13 14 14 13 14 15 16 17 17 17 16 16 17 18 17 17 17 18 19 18 19 21 23 23 24 22 21 20 19 19 17 18 19 19 19 20 19 19 19 19 19 14 16 19 19 19 20 21 22 23 23 23 24 25
24 23 23 22 20 19 18 17 16 16 16 15 15 16 15 14 13 12 12 12 13 13 14 13 14 14 15 15 16 16 15 16 16 17 16 16 16 17 18 17 17 19 19 21 21 21 21 20 20 20 20 19 16 17 19 20 18 18 17 18 18 18 18 18 18 18 19 21 20 20 21 22 21 22
18 18 17 15 16 16 15 16 16 16 15 15 13 8 11 14 13 13 14 13 13 13 12 12 12 12 14 14 15 15 15 15 15 17 16 16 16 17 18 16 17 16 15 16 18 19 20 20 20 20 21 21 19 17 17 17 18 18 17 17 17 16 17 18 18 17 19 19 18 18 18 20 21 22
17 16 15 16 15 16 16 16 16 16 16 14 13 13 12 13 12 13 13 13 12 12 11 12 11 12 12 13 14 14 14 14 14 15 15 14 16 15 16 15 16 17 16 15 16 17 18 18 19 21 22 20 21 19 19 17 17 17 17 17 16 15 16 17 17 16 18 19 19 17 17 18 20 23
15 15 14 15 16 16 16 16 17 16 15 14 14 13 13 12 11 11 12 12 11 11 11 10 11 12 12 12 13 12 12 12 12 14 15 16 16 16 16 15 14 15 14 14 15 16 16 16 17 17 20 20 19 19 21 19 17 17 17 16 16 15 15 17 17 17 18 19 20 17 16 17 18 21
15 15 16 16 15 15 14 14 15 15 14 14 13 12 11 12 12 11 10 11 9 9 10 10 10 11 11 11 11 12 11 11 11 12 13 14 14 15 16 15 14 14 14 14 14 16 15 14 15 13 13 17 18 18 17 20 20 17 16 14 15 15 15 16 16 17 18 18 19 19 16 14 16 18
15 15 16 17 16 14 13 14 14 13 12 11 11 11 11 10 11 11 9 8 7 8 9 10 10 10 10 10 10 11 11 11 10 11 12 13 14 15 14 13 14 14 13 14 15 15 15 13 13 12 11 13 15 15 16 17 18 20 17 15 14 15 15 16 17 16 16 17 16 17 17 16 15 18
15 15 15 15 14 14 14 13 12 12 11 10 9 9 9 9 10 8 8 7 7 9 9 10 10 9 10 10 10 10 10 11 11 11 12 13 13 13 13 12 12 12 12 13 14 14 15 13 12 11 11 10 11 13 13 17 17 17 19 17 14 14 16 16 16 15 15 16 16 18 19 16 16 19
17 15 13 13 13 14 12 11 10 10 10 9 8 7 7 8 8 7 8 8 8 8 9 9 9 9 8 8 9 9 8 8 9 10 11 12 13 12 12 12 11 12 11 10 12 13 14 13 12 11 11 9 9 11 12 12 13 15 18 19 16 14 14 15 14 15 15 15 15 17 16 18 20 22
16 15 14 14 14 14 12 12 10 10 8 8 7 8 7 7 7 7 7 7 7 7 9 9 8 8 8 9 8 8 8 8 9 10 10 11 12 13 12 12 11 10 9 9 9 12 13 12 13 12 11 12 13 14 15 16 16 17 17 18 19 16 14 15 14 14 14 15 16 16 15 17 16 18
13 13 13 14 15 14 11 11 10 9 8 8 6 6 7 6 6 7 7 7 7 7 8 9 8 6 7 7 7 7 7 8 9 10 10 11 11 12 12 11 10 10 9 8 9 10 12 13 13 14 13 14 16 17 15 13 11 12 13 15 18 18 17 17 15 15 14 14 16 15 14 14 14 15
13 13 14 14 13 13 11 9 10 8 8 7 5 5 5 6 5 6 5 6 6 5 6 7 7 7 7 7 7 7 7 7 8 9 9 10 10 11 11 11 9 9 8 7 8 10 13 14 13 12 13 15 14 12 11 12 11 11 12 14 16 18 18 18 17 17 16 16 15 13 13 14 14 13
13 13 13 13 12 11 10 9 8 7 6 6 5 5 5 5 5 5 5 5 5 5 6 7 8 8 7 7 7 7 7 7 8 8 8 9 10 10 10 10 9 9 9 9 10 12 13 14 13 14 15 15 14 13 11 12 11 11 11 12 13 16 17 18 19 19 19 19 18 17 16 15 14 12
13 12 12 11 10 10 9 8 7 7 5 5 5 4 4 4 4 5 5 5 5 5 6 7 7 7 6 7 7 7 7 7 8 8 8 8 9 10 9 9 9 9 9 9 10 11 13 14 13 13 12 12 13 12 11 10 10 11 11 12 13 13 13 16 17 19 20 20 20 20 20 20 20 19
13 12 12 11 10 9 8 7 6 6 5 4 4 4 4 4 4 5 5 5 4 5 5 5 6 6 7 7 6 5 7 8 7 7 8 8 9 9 9 9 9 8 8 9 9 9 12 12 13 13 12 11 11 12 11 11 11 10 10 10 10 12 13 14 14 14 15 16 18 20 21 21 20 20
MSLP
1026.49 1026.45 1026.53 1026.49 1026.89 1027.17 1027.41 1027.65 1027.73 1027.65 1027.57 1027.41 1027.45 1027.33 1027.09 1026.93 1025.89 1025.33 1024.97 1024.53 1025.17 1024.97 1025.57 1025.57 1025.25 1025.57 1025.89 1025.97 1026.01 1025.89 1025.69 1025.49 1025.53 1025.25 1024.93 1024.61 1024.29 1024.09 1023.93 1023.45 1022.85 1022.53 1022.33 1022.13 1021.85 1021.57 1021.05 1020.37 1019.77 1019.25 1018.73 1018.17 1017.53 1016.89 1016.29 1015.73 1015.05 1014.33 1013.65 1013.01 1012.21 1011.53 1010.81 1010.17 1009.49 1008.89 1008.25 1007.57 1006.73 1006.01 1005.45 1004.69 1004.01 1003.21
1026.49 1026.61 1026.69 1026.81 1027.09 1027.45 1027.53 1027.69 1027.85 1027.77 1027.69 1027.65 1027.57 1027.53 1027.61 1027.37 1026.81 1026.53 1026.05 1025.49 1025.21 1025.09 1025.05 1025.33 1025.49 1025.61 1025.85 1025.97 1025.97 1025.85 1025.61 1025.45 1025.37 1024.97 1024.69 1024.45 1024.17 1024.01 1023.65 1023.13 1022.65 1022.33 1022.17 1021.97 1021.77 1021.45 1020.89 1020.25 1019.69 1019.13 1018.57 1018.01 1017.37 1016.77 1016.21 1015.49 1014.81 1014.21 1013.45 1012.61 1011.85 1011.25 1010.65 1009.89 1009.25 1008.53 1007.85 1007.13 1006.45 1005.57 1004.77 1004.09 1003.25 1002.53
1026.57 1026.69 1026.85 1026.97 1027.17 1027.41 1027.53 1027.65 1027.81 1027.93 1027.89 1027.89 1027.77 1027.77 1027.73 1027.73 1027.69 1027.37 1027.09 1026.53 1024.97 1025.49 1025.65 1025.45 1025.65 1025.85 1025.93 1026.01 1025.89 1025.65 1025.45 1025.29 1025.17 1024.73 1024.37 1024.13 1024.01 1023.77 1023.25 1022.93 1022.53 1022.29 1022.09 1022.05 1021.85 1021.37 1020.69 1020.01 1019.49 1019.05 1018.53 1017.89 1017.29 1016.69 1016.05 1015.37 1014.73 1014.09 1013.25 1012.45 1011.73 1011.01 1010.41 1009.77 1009.09 1008.37 1007.53 1006.73 1005.93 1005.05 1004.17 1003.29 1002.49 1001.73
1026.61 1026.73 1026.97 1027.13 1027.21 1027.37 1027.41 1027.61 1027.81 1027.93 1028.05 1028.01 1027.89 1027.93 1027.85 1027.97 1028.09 1027.89 1027.61 1027.13 1026.17 1025.73 1026.01 1025.89 1025.89 1025.93 1026.01 1025.89 1025.69 1025.49 1025.25 1025.01 1024.85 1024.53 1024.25 1024.01 1023.77 1023.37 1023.01 1022.65 1022.33 1021.97 1021.85 1022.01 1021.81 1021.29 1020.57 1019.93 1019.41 1018.93 1018.37 1017.81 1017.21 1016.57 1015.97 1015.25 1014.53 1013.85 1013.09 1012.33 1011.53 1010.85 1010.25 1009.57 1008.81 1007.85 1007.09 1006.33 1005.41 1004.37 1003.49 1002.45 1001.45 1000.61
1026.69 1026.81 1027.09 1027.37 1027.49 1027.45 1027.41 1027.61 1027.77 1027.97 1028.17 1028.17 1028.09 1028.09 1028.09 1028.05 1028.21 1028.21 1027.97 1027.53 1026.73 1026.13 1026.05 1026.25 1026.13 1025.97 1025.97 1025.81 1025.57 1025.37 1025.13 1024.81 1024.45 1024.33 1024.05 1023.81 1023.57 1023.33 1022.97 1022.57 1022.21 1021.93 1021.73 1021.61 1021.53 1021.09 1020.41 1019.77 1019.25 1018.73 1018.21 1017.61 1017.01 1016.53 1015.89 1015.05 1014.45 1013.77 1013.05 1012.33 1011.65 1010.89 1010.13 1009.33 1008.57 1007.69 1006.65 1005.69 1004.73 1003.53 1002.49 1001.29 1000.33 999.37
1026.81 1026.97 1027.21 1027.41 1027.57 1027.61 1027.69 1027.85 1027.93 1028.09 1028.13 1028.17 1028.13 1028.21 1028.25 1028.13 1028.25 1028.41 1028.41 1027.77 1027.41 1026.81 1026.25 1026.29 1026.21 1026.05 1026.01 1025.89 1025.53 1025.37 1024.93 1024.57 1024.41 1024.09 1023.93 1023.77 1023.57 1023.29 1022.93 1022.61 1022.17 1021.89 1021.49 1021.21 1021.09 1020.85 1020.29 1019.73 1019.21 1018.61 1017.93 1017.37 1017.01 1016.53 1015.69 1014.89 1014.25 1013.69 1012.97 1012.21 1011.49 1010.89 1010.21 1009.33 1008.41 1007.37 1006.41 1005.13 1003.97 1002.89 1001.65 1000.21 998.97 997.81
1026.85 1027.09 1027.17 1027.37 1027.61 1027.77 1027.89 1028.05 1028.21 1028.29 1028.25 1028.21 1028.29 1028.41 1028.33 1028.41 1028.45 1028.61 1028.61 1028.41 1027.77 1027.25 1026.85 1026.61 1026.37 1026.17 1026.09 1025.97 1025.49 1025.33 1025.09 1024.77 1024.53 1024.21 1023.85 1023.69 1023.49 1023.21 1022.85 1022.53 1022.17 1021.89 1021.77 1021.37 1020.93 1020.65 1020.33 1019.97 1019.45 1018.65 1017.85 1017.29 1017.01 1016.41 1015.61 1014.85 1014.21 1013.57 1012.93 1012.25 1011.53 1010.85 1010.17 1009.37 1008.25 1007.13 1005.89 1004.69 1003.45 1002.25 1000.93 999.29 997.57 996.09
1026.81 1026.93 1027.13 1027.41 1027.61 1027.73 1027.89 1028.09 1028.17 1028.21 1028.25 1028.25 1028.33 1028.49 1028.53 1028.57 1028.69 1028.69 1028.65 1028.49 1028.21 1027.77 1027.33 1026.49 1026.61 1026.37 1026.25 1025.81 1025.57 1025.29 1025.09 1024.81 1024.45 1024.21 1023.73 1023.49 1023.45 1023.29 1022.89 1022.41 1021.81 1021.53 1021.57 1021.45 1021.13 1020.69 1020.13 1019.53 1019.13 1018.61 1017.97 1017.45 1016.85 1016.13 1015.37 1014.77 1014.17 1013.53 1012.89 1012.25 1011.61 1010.89 1010.05 1009.13 1008.01 1007.05 1006.05 1004.77 1003.53 1002.09 1000.49 998.37 996.01 994.33
1026.77 1026.85 1027.05 1027.41 1027.69 1027.77 1027.89 1028.09 1028.09 1028.25 1028.45 1028.45 1028.45 1028.53 1028.61 1028.69 1028.69 1028.65 1028.45 1028.29 1028.17 1027.93 1027.49 1026.89 1026.57 1026.41 1026.17 1025.89 1025.65 1025.37 1025.09 1024.61 1024.29 1024.05 1023.89 1023.65 1023.37 1023.13 1023.01 1022.69 1022.25 1021.53 1021.01 1020.97 1020.81 1020.37 1019.85 1019.49 1018.89 1018.33 1017.93 1017.41 1016.77 1016.01 1015.33 1014.81 1014.25 1013.53 1012.77 1012.09 1011.49 1010.73 1009.89 1008.85 1007.97 1007.25 1006.45 1005.13 1004.01 1002.45 1000.29 997.65 994.61 992.77
1026.81 1026.97 1027.29 1027.53 1027.73 1027.77 1027.81 1028.01 1028.25 1028.45 1028.65 1028.65 1028.65 1028.73 1028.77 1028.81 1028.81 1028.57 1028.41 1028.25 1028.13 1027.89 1027.53 1027.13 1026.61 1026.25 1026.17 1025.81 1025.65 1025.49 1025.61 1025.37 1024.53 1023.69 1023.45 1023.53 1023.49 1023.25 1022.73 1022.33 1022.09 1021.89 1021.37 1020.73 1020.41 1020.25 1019.93 1019.53 1018.97 1018.29 1017.69 1017.09 1016.53 1016.01 1015.41 1014.81 1014.17 1013.49 1012.73 1011.97 1011.09 1010.29 1009.49 1008.69 1008.09 1007.41 1006.69 1005.49 1004.45 1003.01 1001.05 998.89 996.33 994.01
1027.05 1027.25 1027.49 1027.69 1027.85 1027.93 1028.01 1028.17 1028.33 1028.53 1028.65 1028.73 1028.73 1028.81 1028.97 1028.89 1028.77 1028.49 1028.29 1028.21 1028.05 1027.81 1027.49 1027.09 1026.73 1026.41 1026.13 1026.05 1025.69 1025.53 1025.81 1025.73 1025.57 1025.21 1024.49 1023.61 1023.09 1023.05 1022.97 1022.33 1021.73 1021.53 1021.25 1020.89 1020.65 1020.29 1019.85 1019.45 1018.93 1018.21 1017.65 1017.01 1016.45 1015.89 1015.17 1014.45 1013.93 1013.25 1012.65 1011.73 1010.73 1009.77 1009.05 1008.61 1008.29 1007.65 1006.85 1005.85 1004.85 1003.61 1002.29 1000.37 998.33 996.49
1027.29 1027.49 1027.69 1027.85 1027.97 1028.09 1028.21 1028.29 1028.45 1028.49 1028.53 1028.57 1028.65 1028.77 1028.85 1028.81 1028.81 1028.57 1028.41 1028.25 1028.01 1027.81 1027.61 1027.33 1026.97 1026.69 1026.37 1025.93 1025.81 1025.81 1025.81 1025.81 1025.73 1025.97 1026.21 1025.65 1024.45 1023.45 1022.61 1022.49 1022.09 1021.29 1021.29 1020.81 1020.17 1019.89 1019.41 1019.01 1018.53 1017.97 1017.41 1016.93 1016.49 1015.85 1015.13 1014.37 1013.73 1013.13 1012.29 1011.21 1010.05 1009.09 1008.73 1008.81 1008.29 1007.85 1007.17 1006.29 1005.41 1004.37 1003.05 1001.89 1000.45 998.93
1027.49 1027.65 1027.85 1028.01 1028.13 1028.41 1028.61 1028.69 1028.69 1028.73 1028.73 1028.61 1028.57 1028.69 1028.81 1028.89 1028.73 1028.69 1028.57 1028.41 1028.21 1028.01 1027.81 1027.53 1027.13 1026.93 1026.65 1026.37 1026.21 1026.17 1026.29 1026.53 1026.57 1026.37 1026.41 1026.01 1025.33 1024.49 1023.37 1022.25 1022.45 1022.17 1021.61 1021.29 1020.93 1020.37 1019.97 1019.21 1018.53 1017.97 1017.37 1016.81 1016.41 1015.85 1015.29 1014.53 1013.93 1013.09 1012.25 1011.09 1009.81 1009.45 1009.45 1009.05 1008.57 1008.17 1007.57 1006.81 1005.93 1005.09 1004.01 1003.05 1002.01 1001.09
1027.57 1027.81 1028.01 1028.37 1028.61 1028.73 1028.81 1028.89 1028.89 1028.93 1028.93 1028.89 1028.77 1028.81 1028.81 1028.85 1028.93 1029.05 1029.01 1028.73 1028.41 1028.29 1028.21 1027.89 1027.69 1027.57 1027.21 1026.89 1026.85 1026.89 1026.85 1026.81 1026.81 1026.69 1026.53 1026.17 1025.37 1024.85 1024.09 1022.57 1021.81 1022.13 1022.05 1021.69 1020.93 1020.57 1020.25 1019.65 1018.77 1018.13 1017.61 1016.93 1016.57 1016.05 1015.49 1015.01 1014.49 1013.69 1012.73 1011.73 1010.49 1010.21 1009.93 1009.53 1009.09 1008.65 1007.97 1007.33 1006.41 1005.81 1004.93 1004.09 1003.33 1002.61
1027.61 1027.89 1028.17 1028.41 1028.73 1028.81 1028.85 1028.89 1028.93 1028.97 1028.97 1028.89 1028.97 1029.09 1029.17 1029.25 1029.25 1029.37 1029.37 1029.05 1028.77 1028.73 1028.65 1028.33 1028.17 1027.93 1027.69 1027.33 1027.25 1027.29 1027.13 1027.17 1027.17 1027.05 1026.73 1026.33 1025.93 1025.65 1025.13 1024.01 1021.89 1021.73 1022.05 1021.69 1021.21 1020.37 1020.25 1019.97 1019.25 1018.49 1018.01 1017.45 1016.85 1016.37 1015.97 1015.37 1014.69 1013.93 1013.13 1012.25 1011.21 1010.89 1010.53 1010.09 1009.57 1009.01 1008.41 1007.69 1007.13 1006.61 1005.81 1005.13 1004.45 1003.85
1027.41 1027.77 1028.01 1028.29 1028.45 1028.45 1028.49 1028.61 1028.81 1028.97 1029.01 1028.97 1029.01 1029.17 1029.29 1029.45 1029.53 1029.45 1029.41 1029.41 1029.33 1029.17 1029.05 1028.89 1028.57 1028.25 1027.85 1027.57 1027.61 1027.45 1027.53 1027.41 1027.25 1026.97 1026.85 1026.61 1026.45 1026.13 1025.81 1025.25 1024.25 1022.41 1022.81 1022.41 1021.61 1020.61 1020.41 1020.13 1019.57 1018.77 1018.33 1017.81 1017.29 1016.89 1016.45 1015.81 1015.09 1014.25 1013.53 1012.81 1011.93 1011.49 1011.01 1010.61 1010.13 1009.49 1008.93 1008.37 1007.81 1007.29 1006.73 1006.13 1005.45 1004.89
1027.25 1027.57 1027.85 1028.21 1028.37 1028.57 1028.81 1028.69 1028.61 1028.69 1028.73 1028.85 1029.09 1029.25 1029.41 1029.49 1029.61 1029.53 1029.41 1029.33 1029.29 1029.17 1029.17 1029.01 1028.85 1028.33 1028.09 1028.09 1027.85 1027.85 1027.89 1027.69 1027.49 1027.09 1026.81 1026.57 1026.41 1026.29 1026.17 1025.41 1024.49 1023.53 1023.41 1022.81 1021.97 1021.05 1020.45 1020.29 1019.69 1019.01 1018.45 1018.13 1017.65 1017.13 1016.53 1016.01 1015.41 1014.73 1013.97 1013.41 1012.57 1011.97 1011.57 1011.17 1010.65 1010.13 1009.69 1009.17 1008.61 1008.09 1007.57 1007.01 1006.49 1005.97
1027.17 1027.41 1027.61 1027.85 1028.13 1028.33 1028.49 1028.49 1028.53 1028.41 1028.49 1028.61 1028.85 1029.05 1029.17 1029.21 1029.33 1029.33 1029.29 1029.29 1029.25 1029.13 1028.97 1028.85 1028.77 1028.41 1028.37 1028.29 1028.01 1027.97 1028.01 1027.97 1027.81 1027.49 1026.97 1026.57 1026.41 1026.25 1026.01 1025.49 1024.97 1024.13 1023.65 1023.29 1022.61 1021.65 1020.65 1020.29 1019.97 1019.41 1018.65 1018.53 1017.97 1017.53 1016.97 1016.37 1015.73 1015.17 1014.49 1013.97 1013.09 1012.61 1012.21 1011.77 1011.33 1010.85 1010.41 1009.93 1009.41 1008.89 1008.37 1007.97 1007.53 1007.09
1027.25 1027.41 1027.53 1027.61 1027.81 1028.09 1028.25 1028.33 1028.33 1028.33 1028.41 1028.69 1029.01 1029.29 1029.41 1029.33 1029.21 1029.13 1029.05 1028.97 1028.97 1028.97 1028.93 1028.81 1028.65 1028.45 1028.41 1028.37 1028.29 1028.17 1028.13 1028.05 1027.85 1027.61 1027.29 1027.01 1026.73 1026.13 1025.45 1025.05 1024.45 1023.93 1023.65 1023.45 1023.17 1022.37 1020.89 1020.49 1020.33 1019.65 1019.05 1018.69 1018.17 1017.69 1017.13 1016.57 1016.09 1015.57 1014.93 1014.41 1013.65 1013.13 1012.73 1012.37 1011.89 1011.49 1011.13 1010.73 1010.25 1009.77 1009.37 1008.97 1008.61 1008.17
1027.37 1027.53 1027.65 1027.73 1027.85 1028.05 1028.21 1028.33 1028.29 1028.25 1028.37 1028.73 1029.17 1029.41 1029.53 1029.61 1029.41 1029.21 1029.09 1029.13 1029.09 1029.05 1029.01 1028.97 1028.93 1028.81 1028.73 1028.65 1028.49 1028.33 1028.17 1027.97 1027.85 1027.69 1027.45 1027.17 1026.65 1026.17 1025.61 1024.89 1024.33 1024.09 1023.57 1023.57 1023.13 1022.45 1021.61 1021.01 1020.73 1020.01 1019.41 1019.01 1018.53 1017.85 1017.21 1016.81 1016.41 1015.93 1015.41 1014.85 1014.17 1013.57 1013.25 1012.89 1012.45 1012.09 1011.77 1011.45 1011.05 1010.65 1010.33 1009.97 1009.61 1009.29
1027.41 1027.53 1027.61 1027.69 1027.77 1027.97 1028.09 1028.13 1028.13 1028.21 1028.37 1028.69 1029.05 1029.29 1029.61 1029.65 1029.45 1029.21 1028.97 1029.01 1029.09 1029.13 1029.17 1029.13 1029.05 1028.93 1028.77 1028.61 1028.41 1028.29 1028.17 1028.09 1028.01 1027.89 1027.61 1027.05 1026.85 1026.69 1026.01 1024.85 1024.37 1024.09 1023.81 1023.25 1022.93 1022.85 1022.13 1021.37 1021.01 1020.17 1019.77 1019.33 1018.81 1018.05 1017.41 1017.21 1016.73 1016.37 1015.85 1015.29 1014.73 1014.13 1013.73 1013.41 1013.05 1012.69 1012.41 1012.13 1011.81 1011.49 1011.17 1010.81 1010.49 1010.21
1027.33 1027.53 1027.69 1027.65 1027.69 1027.77 1027.93 1028.01 1028.09 1028.21 1028.37 1028.65 1028.93 1029.29 1029.53 1029.41 1029.21 1028.93 1028.93 1029.13 1029.17 1029.21 1029.25 1029.17 1029.05 1028.93 1028.77 1028.57 1028.41 1028.21 1028.13 1028.13 1028.09 1028.13 1027.93 1027.41 1027.25 1026.81 1026.29 1025.65 1024.69 1024.01 1023.85 1023.37 1023.25 1023.09 1022.37 1021.73 1021.37 1020.81 1019.81 1019.45 1018.89 1018.33 1017.89 1017.57 1017.09 1016.73 1016.33 1015.73 1015.29 1014.93 1014.33 1013.89 1013.65 1013.33 1013.01 1012.77 1012.49 1012.21 1011.93 1011.57 1011.29 1011.05
1027.21 1027.49 1027.61 1027.65 1027.57 1027.65 1027.77 1027.89 1028.01 1028.09 1028.17 1028.45 1028.77 1029.09 1029.09 1029.01 1029.01 1028.81 1029.09 1029.37 1029.53 1029.45 1029.41 1029.21 1029.01 1028.85 1028.61 1028.45 1028.33 1028.25 1028.25 1028.17 1028.17 1028.01 1027.77 1027.49 1027.21 1026.85 1026.33 1025.81 1025.13 1024.29 1023.33 1023.33 1023.49 1023.29 1022.37 1022.21 1021.69 1021.57 1020.53 1019.49 1018.73 1018.57 1018.37 1017.97 1017.49 1017.21 1016.93 1016.41 1015.85 1015.45 1015.09 1014.69 1014.29 1013.93 1013.57 1013.33 1013.05 1012.81 1012.57 1012.29 1012.13 1012.05
1027.17 1027.29 1027.37 1027.57 1027.57 1027.61 1027.73 1027.85 1027.97 1028.01 1028.09 1028.29 1028.57 1028.61 1028.65 1028.61 1028.77 1028.77 1029.29 1029.61 1029.69 1029.73 1029.65 1029.49 1029.25 1028.93 1028.61 1028.49 1028.41 1028.33 1028.21 1028.13 1028.05 1027.93 1027.65 1027.37 1027.05 1026.69 1026.21 1025.81 1025.49 1025.13 1024.01 1023.45 1023.53 1023.37 1022.69 1022.53 1022.21 1022.09 1022.09 1021.65 1019.93 1018.81 1018.77 1018.29 1017.81 1017.57 1017.45 1017.09 1016.57 1016.13 1015.69 1015.41 1015.09 1014.65 1014.21 1013.97 1013.73 1013.45 1013.17 1013.01 1012.85 1012.77
1026.93 1027.05 1027.13 1027.17 1027.33 1027.45 1027.65 1027.77 1027.81 1027.93 1028.05 1028.17 1028.37 1028.33 1028.41 1028.41 1028.69 1029.05 1029.33 1029.57 1029.65 1029.69 1029.61 1029.37 1029.05 1028.65 1028.41 1028.33 1028.25 1028.17 1028.09 1027.85 1027.81 1027.81 1027.57 1027.29 1026.93 1026.57 1026.25 1025.81 1025.29 1024.81 1024.21 1023.85 1023.65 1023.53 1023.05 1022.81 1022.49 1022.25 1022.13 1021.93 1021.13 1020.29 1019.25 1018.93 1018.01 1017.85 1017.85 1017.65 1017.25 1016.77 1016.41 1016.05 1015.81 1015.49 1015.05 1014.65 1014.37 1014.17 1013.89 1013.69 1013.57 1013.45
1026.65 1026.65 1026.77 1026.89 1027.13 1027.33 1027.53 1027.61 1027.65 1027.77 1027.97 1028.13 1028.17 1028.05 1028.17 1028.45 1028.73 1029.09 1029.33 1029.41 1029.41 1029.29 1029.05 1028.81 1028.65 1028.49 1028.41 1028.37 1028.25 1028.17 1028.01 1027.81 1027.77 1027.77 1027.53 1027.17 1026.85 1026.45 1025.97 1025.61 1025.37 1025.01 1024.33 1023.97 1023.77 1023.61 1023.53 1023.13 1022.93 1022.73 1022.25 1021.93 1021.09 1020.77 1020.05 1019.13 1018.17 1018.09 1018.09 1018.01 1017.77 1017.45 1017.05 1016.73 1016.37 1016.05 1015.81 1015.57 1015.37 1015.09 1014.81 1014.49 1014.33 1014.17
1026.25 1026.37 1026.57 1026.77 1026.97 1027.17 1027.29 1027.41 1027.49 1027.73 1027.93 1028.01 1027.93 1028.01 1028.21 1028.49 1028.81 1029.05 1029.09 1029.25 1029.21 1028.93 1028.81 1028.69 1028.49 1028.37 1028.33 1028.37 1028.25 1028.13 1027.89 1027.77 1027.73 1027.57 1027.33 1027.05 1026.77 1026.33 1025.89 1025.49 1025.21 1024.85 1024.29 1023.97 1023.73 1023.65 1023.69 1023.37 1023.01 1022.89 1022.49 1022.05 1021.53 1020.69 1020.21 1019.53 1018.53 1018.21 1018.29 1018.37 1018.25 1017.97 1017.65 1017.29 1016.97 1016.69 1016.37 1016.17 1016.01 1015.85 1015.65 1015.45 1015.29 1015.13
1026.09 1026.29 1026.49 1026.69 1026.89 1027.05 1027.13 1027.25 1027.49 1027.73 1027.85 1027.81 1027.89 1028.09 1028.29 1028.65 1028.85 1028.89 1028.97 1028.93 1028.89 1028.89 1028.61 1028.45 1028.29 1028.21 1028.21 1028.25 1028.13 1027.97 1028.01 1027.97 1027.77 1027.53 1027.13 1026.77 1026.45 1026.09 1025.65 1025.25 1024.89 1024.57 1024.17 1023.85 1023.65 1023.65 1023.57 1023.37 1023.01 1022.69 1022.45 1022.05 1021.61 1021.05 1020.41 1019.45 1018.69 1018.53 1018.73 1018.61 1018.65 1018.49 1018.21 1017.93 1017.65 1017.33 1017.01 1016.77 1016.53 1016.37 1016.17 1016.05 1015.97 1015.81
1026.05 1026.25 1026.49 1026.77 1026.89 1027.01 1027.17 1027.45 1027.77 1027.93 1028.01 1028.01 1028.09 1028.29 1028.53 1028.73 1028.65 1028.73 1028.73 1028.77 1028.77 1028.49 1028.41 1028.37 1028.29 1028.17 1028.09 1028.17 1028.09 1028.01 1028.13 1027.89 1027.45 1027.01 1026.61 1026.29 1026.01 1025.61 1025.21 1024.81 1024.41 1024.09 1023.81 1023.65 1023.57 1023.45 1023.41 1023.25 1022.97 1022.57 1022.25 1021.85 1021.53 1020.81 1020.25 1019.65 1019.09 1019.17 1019.05 1018.93 1019.01 1019.01 1018.81 1018.53 1018.25 1017.97 1017.65 1017.37 1017.21 1017.05 1017.01 1016.89 1016.73 1016.57
1026.05 1026.25 1026.53 1026.77 1026.89 1027.05 1027.37 1027.85 1028.17 1028.25 1028.17 1028.33 1028.41 1028.61 1028.73 1028.61 1028.61 1028.69 1028.69 1028.65 1028.57 1028.45 1028.41 1028.45 1028.41 1028.21 1028.13 1028.01 1027.89 1027.85 1027.61 1027.29 1026.93 1026.69 1026.41 1026.09 1025.61 1025.17 1024.77 1024.45 1024.01 1023.65 1023.45 1023.37 1023.29 1023.21 1023.17 1023.09 1022.81 1022.49 1022.09 1021.61 1021.25 1020.81 1020.25 1020.05 1019.25 1019.33 1019.29 1019.21 1019.21 1019.17 1019.17 1019.05 1018.85 1018.49 1018.13 1017.97 1017.81 1017.65 1017.61 1017.49 1017.37 1017.13
1025.97 1026.21 1026.53 1026.81 1026.93 1027.09 1027.49 1027.93 1028.25 1028.57 1028.77 1028.81 1028.69 1028.61 1028.53 1028.53 1028.57 1028.69 1028.65 1028.69 1028.77 1028.65 1028.61 1028.57 1028.45 1028.29 1028.09 1027.85 1027.57 1027.37 1027.21 1026.97 1026.65 1026.45 1026.21 1025.77 1025.29 1024.89 1024.57 1024.21 1023.73 1023.37 1023.21 1023.13 1023.01 1022.93 1022.93 1022.81 1022.57 1022.25 1021.93 1021.45 1021.17 1020.77 1020.41 1020.09 1019.61 1019.49 1019.57 1019.57 1019.41 1019.61 1019.69 1019.41 1019.25 1019.01 1018.69 1018.45 1018.33 1018.21 1018.09 1017.97 1017.81 1017.61
1025.89 1026.29 1026.65 1026.93 1027.17 1027.41 1027.65 1027.97 1028.33 1028.57 1028.77 1028.85 1028.77 1028.57 1028.45 1028.49 1028.57 1028.73 1028.77 1028.85 1028.77 1028.69 1028.61 1028.65 1028.57 1028.37 1027.97 1027.69 1027.41 1027.29 1027.13 1026.73 1026.45 1026.29 1026.05 1025.61 1025.25 1024.77 1024.37 1023.97 1023.57 1023.33 1023.13 1022.97 1022.81 1022.69 1022.61 1022.49 1022.29 1021.97 1021.57 1021.37 1021.25 1020.89 1020.41 1020.01 1020.01 1019.89 1019.85 1019.85 1019.85 1019.89 1019.81 1019.69 1019.57 1019.41 1019.17 1018.85 1018.77 1018.81 1018.81 1018.65 1018.61 1018.45
1026.33 1026.69 1026.97 1027.29 1027.45 1027.45 1027.45 1027.53 1027.81 1028.17 1028.53 1028.61 1028.81 1029.21 1028.81 1028.41 1028.33 1028.29 1028.13 1028.25 1028.33 1028.41 1028.57 1028.53 1028.45 1028.33 1027.93 1027.69 1027.37 1027.17 1026.93 1026.65 1026.45 1026.13 1025.97 1025.65 1025.25 1024.81 1024.29 1024.01 1023.69 1023.45 1023.33 1023.09 1022.89 1022.65 1022.41 1022.21 1021.97 1021.69 1021.41 1021.29 1021.21 1021.09 1020.61 1020.01 1020.01 1020.09 1020.09 1020.05 1020.05 1020.09 1020.05 1019.97 1019.89 1019.77 1019.49 1019.21 1019.25 1019.29 1019.37 1019.37 1019.29 1019.13
1026.01 1026.41 1026.69 1026.81 1026.97 1026.93 1026.93 1027.09 1027.33 1027.61 1027.85 1028.17 1028.41 1028.53 1028.61 1028.41 1028.25 1028.01 1027.97 1028.05 1028.17 1028.29 1028.33 1028.37 1028.41 1028.33 1028.09 1027.65 1027.25 1027.01 1026.77 1026.61 1026.33 1026.13 1025.93 1025.69 1025.25 1024.89 1024.45 1024.17 1023.81 1023.57 1023.45 1023.29 1023.05 1022.77 1022.49 1022.21 1021.81 1021.25 1021.05 1021.13 1021.01 1020.97 1020.73 1020.41 1020.17 1020.25 1020.29 1020.33 1020.25 1020.37 1020.33 1020.25 1020.25 1020.17 1019.77 1019.49 1019.45 1019.57 1019.73 1019.81 1019.77 1019.61
1025.93 1026.01 1026.33 1026.53 1026.61 1026.53 1026.49 1026.65 1026.73 1026.97 1027.37 1027.61 1027.93 1028.13 1028.29 1028.25 1028.21 1028.09 1027.89 1027.93 1028.09 1028.17 1028.17 1028.29 1028.29 1028.21 1028.01 1027.61 1027.25 1027.09 1026.89 1026.61 1026.37 1026.09 1025.77 1025.53 1025.21 1024.89 1024.61 1024.33 1024.01 1023.77 1023.65 1023.49 1023.21 1022.93 1022.77 1022.45 1022.05 1021.49 1020.57 1020.45 1020.57 1020.65 1020.73 1020.65 1020.41 1020.29 1020.41 1020.53 1020.61 1020.53 1020.53 1020.41 1020.33 1020.25 1020.01 1019.77 1019.61 1019.81 1020.01 1020.13 1020.17 1020.05
1025.57 1025.73 1025.73 1025.85 1026.01 1026.21 1026.49 1026.45 1026.41 1026.73 1027.01 1027.29 1027.61 1027.89 1028.05 1027.89 1027.85 1027.97 1027.93 1027.97 1028.17 1028.09 1028.09 1028.13 1028.21 1028.17 1028.01 1027.73 1027.41 1027.09 1026.77 1026.53 1026.29 1026.05 1025.85 1025.53 1025.29 1025.05 1024.77 1024.49 1024.21 1023.97 1023.73 1023.57 1023.33 1023.13 1023.01 1022.77 1022.45 1022.13 1021.53 1020.45 1019.77 1019.41 1019.97 1020.69 1020.69 1020.61 1020.37 1020.61 1020.73 1020.73 1020.69 1020.65 1020.53 1020.33 1020.09 1020.01 1019.93 1019.81 1020.05 1020.41 1020.53 1020.45
1025.01 1025.17 1025.21 1025.09 1025.37 1025.77 1025.97 1026.01 1026.29 1026.45 1026.81 1027.21 1027.41 1027.41 1027.57 1027.65 1027.65 1027.73 1028.05 1028.29 1028.25 1027.97 1027.89 1028.01 1028.09 1028.17 1028.13 1027.81 1027.45 1026.97 1026.61 1026.37 1026.25 1026.05 1025.89 1025.57 1025.33 1025.05 1024.89 1024.65 1024.29 1023.97 1023.81 1023.61 1023.45 1023.21 1023.13 1023.09 1022.81 1022.61 1022.17 1021.09 1019.97 1019.69 1019.85 1020.81 1020.85 1020.81 1020.69 1020.73 1020.93 1020.89 1020.85 1020.69 1020.53 1020.49 1020.53 1020.41 1020.37 1020.29 1020.37 1020.49 1020.69 1020.69
1024.37 1024.57 1024.85 1024.89 1025.13 1025.29 1025.53 1025.77 1026.05 1026.29 1026.53 1026.89 1027.17 1027.25 1027.37 1027.49 1027.65 1027.93 1028.17 1028.17 1027.93 1027.65 1027.65 1027.73 1027.85 1028.01 1028.01 1027.77 1027.45 1026.93 1026.49 1026.25 1026.13 1025.97 1025.77 1025.53 1025.33 1025.21 1025.01 1024.85 1024.53 1024.17 1024.01 1023.81 1023.53 1023.25 1023.13 1023.13 1023.09 1022.93 1022.61 1022.17 1021.45 1020.45 1020.21 1020.29 1020.65 1020.85 1020.93 1020.89 1020.97 1021.09 1020.93 1020.73 1020.57 1020.61 1020.77 1020.73 1020.73 1020.69 1020.53 1020.77 1020.85 1020.81
1023.89 1024.05 1024.33 1024.49 1024.61 1024.89 1025.13 1025.53 1025.85 1025.97 1026.17 1026.61 1026.81 1026.93 1027.05 1027.25 1027.45 1027.73 1027.85 1027.73 1027.57 1027.45 1027.37 1027.41 1027.53 1027.69 1027.93 1027.85 1027.41 1026.89 1026.61 1026.37 1026.17 1025.93 1025.73 1025.49 1025.25 1025.17 1025.09 1024.85 1024.65 1024.29 1024.21 1023.97 1023.57 1023.21 1023.01 1023.05 1023.09 1023.09 1022.89 1022.65 1022.29 1021.77 1021.73 1021.21 1021.05 1021.17 1021.05 1021.05 1021.09 1021.13 1021.13 1020.97 1020.89 1020.85 1020.77 1020.89 1021.01 1021.09 1021.25 1021.21 1021.09 1020.93
1023.41 1023.45 1023.73 1023.93 1024.17 1024.49 1024.89 1025.21 1025.61 1025.65 1026.05 1026.25 1026.53 1026.65 1026.85 1027.05 1027.09 1027.29 1027.53 1027.57 1027.53 1027.37 1027.17 1027.17 1027.33 1027.57 1027.65 1027.49 1027.29 1026.93 1026.53 1026.17 1026.01 1025.81 1025.61 1025.33 1025.13 1025.01 1024.89 1024.81 1024.73 1024.49 1024.37 1024.09 1023.73 1023.17 1022.89 1022.97 1022.97 1023.01 1023.01 1022.77 1022.45 1022.29 1021.93 1021.53 1021.41 1021.29 1021.17 1021.09 1021.05 1021.09 1021.25 1021.17 1021.01 1020.93 1021.05 1021.01 1020.93 1021.01 1021.17 1021.13 1021.13 1021.13
1023.17 1023.33 1023.37 1023.57 1023.81 1024.13 1024.65 1024.97 1025.33 1025.57 1025.85 1026.13 1026.45 1026.69 1026.81 1026.93 1026.97 1027.09 1027.25 1027.41 1027.45 1027.37 1027.17 1027.01 1027.05 1027.33 1027.41 1027.33 1027.17 1026.85 1026.57 1026.17 1025.89 1025.65 1025.45 1025.25 1025.09 1024.89 1024.77 1024.77 1024.73 1024.45 1024.33 1024.09 1023.69 1023.29 1022.85 1022.81 1023.01 1023.05 1022.93 1022.65 1022.25 1022.01 1021.69 1021.29 1021.17 1021.37 1021.37 1021.25 1021.13 1021.09 1021.13 1021.17 1021.17 1021.01 1021.05 1021.21 1021.01 1020.97 1021.05 1021.21 1021.29 1021.25
1022.69 1022.81 1022.97 1023.29 1023.53 1023.77 1024.29 1024.77 1025.05 1025.41 1025.65 1025.97 1026.33 1026.57 1026.73 1026.77 1026.85 1027.01 1027.21 1027.33 1027.49 1027.49 1027.33 1027.13 1026.97 1027.01 1027.01 1026.93 1026.85 1026.69 1026.45 1026.17 1025.97 1025.73 1025.45 1025.25 1025.05 1024.81 1024.61 1024.57 1024.57 1024.45 1024.33 1024.01 1023.65 1023.25 1022.85 1022.85 1022.89 1022.81 1022.53 1022.25 1022.01 1021.77 1021.25 1020.93 1021.17 1021.45 1021.57 1021.45 1021.25 1021.13 1021.13 1021.13 1021.17 1021.13 1021.09 1021.09 1021.13 1021.17 1021.21 1021.21 1021.25 1021.17
1022.45 1022.65 1022.69 1022.89 1023.29 1023.69 1024.09 1024.53 1024.85 1025.13 1025.45 1025.77 1026.09 1026.25 1026.41 1026.49 1026.61 1026.81 1026.85 1026.93 1027.13 1027.17 1027.01 1026.81 1026.61 1026.65 1026.65 1026.57 1026.49 1026.45 1026.33 1026.21 1025.97 1025.73 1025.49 1025.25 1024.97 1024.77 1024.57 1024.49 1024.49 1024.45 1024.21 1023.85 1023.45 1023.09 1022.77 1022.65 1022.57 1022.41 1022.09 1021.85 1021.57 1021.53 1021.29 1021.13 1021.41 1021.57 1021.61 1021.45 1021.37 1021.25 1021.25 1021.21 1021.13 1021.09 1021.05 1021.09 1021.13 1021.13 1021.09 1020.93 1020.77 1020.65
1021.85 1022.17 1022.29 1022.65 1023.17 1023.49 1023.85 1024.25 1024.57 1024.81 1025.21 1025.45 1025.77 1026.09 1026.17 1026.29 1026.41 1026.37 1026.45 1026.61 1026.77 1026.77 1026.69 1026.49 1026.41 1026.41 1026.45 1026.33 1026.25 1026.21 1026.09 1025.97 1025.89 1025.73 1025.45 1025.17 1024.93 1024.77 1024.57 1024.45 1024.37 1024.25 1023.97 1023.57 1023.21 1022.85 1022.53 1022.45 1022.37 1022.33 1022.09 1021.77 1021.65 1021.49 1021.25 1021.49 1021.45 1021.37 1021.45 1021.53 1021.41 1021.33 1021.37 1021.25 1021.09 1021.05 1020.97 1020.97 1020.97 1020.89 1020.85 1020.89 1020.77 1020.77
1021.37 1021.69 1021.93 1022.25 1022.69 1023.09 1023.53 1023.89 1024.21 1024.53 1024.89 1025.25 1025.53 1025.69 1025.81 1025.93 1025.97 1026.01 1026.09 1026.25 1026.45 1026.53 1026.49 1026.41 1026.33 1026.29 1026.17 1026.09 1025.97 1025.93 1025.77 1025.81 1025.81 1025.65 1025.33 1025.09 1024.81 1024.61 1024.45 1024.29 1024.17 1024.01 1023.81 1023.41 1023.21 1022.81 1022.41 1022.37 1022.21 1022.17 1022.09 1022.05 1021.89 1021.57 1021.49 1021.37 1021.29 1021.49 1021.57 1021.57 1021.53 1021.37 1021.25 1021.17 1021.09 1021.05 1020.97 1020.97 1021.01 1020.89 1020.57 1020.61 1020.65 1020.61
Wind_Speed
5 5 5 4 4 3 3 2 1 1 1 0 0 1 1 2 3 5 4 3 4 1 1 4 1 2 5 6 7 8 7 7 9 10 9 9 9 11 19 24 24 22 22 23 23 25 26 28 29 30 30 30 31 32 32 34 34 35 37 38 38 38 38 38 38 38 39 38 39 40 39 39 40 40
4 5 5 4 4 3 3 3 2 1 1 0 0 0 0 1 2 2 4 5 3 4 3 4 5 6 7 7 7 7 7 8 10 11 9 9 9 16 22 22 21 21 22 23 24 25 26 28 30 30 30 30 31 32 32 33 35 36 37 38 39 38 38 39 40 41 40 40 40 39 38 38 39 39
5 6 6 4 4 4 4 4 3 2 1 1 1 1 1 0 1 1 2 4 1 2 6 5 5 7 8 8 8 7 7 8 10 10 10 10 13 17 14 17 19 21 22 22 23 25 28 30 30 30 30 31 32 32 33 34 35 35 36 37 38 38 39 40 40 41 39 38 39 39 40 40 39 41
5 6 6 5 4 4 4 4 3 3 2 1 1 1 1 1 0 2 3 5 7 4 6 7 7 8 9 9 9 9 8 8 10 10 10 11 14 11 11 15 19 22 22 20 22 25 29 31 30 29 29 30 31 32 33 35 35 35 36 36 38 39 39 39 39 40 39 38 40 41 41 42 43 44
5 5 6 5 4 4 4 4 3 3 2 2 1 1 0 0 1 1 3 5 7 5 2 5 6 8 8 8 8 10 10 10 10 11 11 12 11 11 11 12 16 19 21 20 23 27 29 30 31 30 31 31 32 32 33 35 33 34 35 36 37 38 39 40 40 40 40 41 42 42 43 45 45 46
4 5 6 6 5 4 5 4 3 3 2 2 1 1 0 0 0 1 2 4 5 8 5 5 6 7 7 9 8 10 13 12 12 13 12 9 10 10 11 11 12 18 21 23 26 26 27 27 28 30 31 32 31 31 33 34 34 34 35 37 37 37 38 40 41 41 42 42 43 44 45 45 46 45
6 6 6 6 5 4 5 4 3 3 2 2 2 1 0 0 1 1 2 3 5 6 7 6 6 7 8 8 10 11 10 11 11 13 12 11 9 10 12 12 10 13 18 25 27 25 26 28 29 30 32 31 30 30 32 32 33 35 36 36 36 37 37 38 40 41 42 43 41 38 37 41 41 40
6 6 6 5 5 5 5 4 3 3 2 2 1 1 0 0 1 2 2 3 4 6 7 5 7 7 8 8 9 9 9 11 12 11 12 11 10 11 12 14 13 13 20 22 23 24 26 27 27 28 29 29 30 30 30 31 33 34 34 34 35 36 37 38 39 39 39 33 37 40 42 43 40 38
6 6 6 6 5 5 5 4 3 3 3 2 1 1 1 1 1 2 2 3 4 5 7 8 6 7 7 7 8 8 11 13 12 11 10 11 13 12 12 10 11 18 23 19 18 21 24 25 27 28 27 28 28 28 30 32 33 33 34 34 34 36 36 36 36 34 31 31 35 39 45 44 39 32
5 6 6 6 5 4 4 4 4 3 3 2 2 2 1 0 2 2 3 3 4 5 7 8 9 6 8 8 7 8 10 12 14 15 14 12 9 11 13 12 10 9 11 12 13 14 17 21 26 27 27 28 27 28 31 31 31 32 33 36 38 37 37 35 33 28 27 29 33 39 48 47 48 43
6 6 5 5 4 4 4 4 4 4 4 2 3 2 1 1 2 3 3 4 5 5 6 7 7 8 7 7 10 9 9 9 9 12 15 17 15 13 12 14 12 10 11 14 17 18 19 20 19 23 26 26 27 30 32 32 31 33 36 39 39 38 36 32 25 24 25 29 33 36 42 45 49 51
6 6 5 5 4 4 4 4 4 4 3 3 3 2 0 1 2 2 3 4 4 5 5 6 8 7 9 8 7 8 9 9 7 7 11 15 17 17 16 14 14 13 12 14 15 15 16 17 21 23 24 25 29 31 30 30 31 34 40 42 42 32 24 19 23 26 28 29 30 35 37 41 43 48
6 6 5 5 4 5 6 6 4 3 2 2 2 1 1 1 2 2 3 3 3 4 5 6 6 7 8 8 10 9 8 9 11 12 12 13 14 14 16 15 10 10 14 13 13 12 14 17 16 16 15 17 24 24 27 24 31 39 41 42 22 25 21 23 26 26 26 27 30 32 34 37 41 43
6 6 5 5 8 8 7 6 6 6 4 3 2 1 1 1 2 2 3 3 3 4 5 5 7 7 7 8 9 9 9 11 11 12 12 13 14 15 15 16 9 8 10 13 14 12 12 14 16 15 17 17 18 16 17 20 27 34 39 26 25 24 25 25 25 24 26 27 30 31 34 35 37 39
7 6 6 6 6 7 6 5 5 5 5 3 2 2 3 3 2 2 3 3 4 4 5 5 6 6 8 8 8 9 10 11 11 11 12 12 12 12 14 17 17 8 15 15 16 14 12 13 15 15 15 16 17 17 18 31 33 35 35 24 24 23 24 25 25 26 27 29 30 30 33 34 34 35
7 7 6 5 4 4 5 5 5 4 3 2 2 3 3 2 2 3 2 3 4 4 5 6 6 7 7 8 8 10 11 11 12 11 11 11 11 12 12 13 15 13 15 16 15 16 12 13 14 15 14 15 15 17 23 30 31 34 35 25 22 22 24 25 25 26 27 28 29 31 32 31 33 34
7 6 6 6 4 4 4 3 3 3 4 4 3 2 1 1 1 3 3 4 4 4 5 6 7 7 8 10 9 9 11 12 12 12 12 11 11 11 11 12 14 15 13 14 14 16 14 12 14 15 14 14 14 16 21 28 29 32 33 27 24 24 25 24 25 25 25 26 28 29 30 31 32 32
7 7 7 6 6 6 5 4 4 3 3 3 2 1 1 1 2 3 3 4 4 4 4 5 7 8 9 10 11 11 11 11 11 12 13 13 14 13 12 13 14 13 11 12 13 15 14 13 14 15 14 13 14 13 20 25 27 30 30 26 22 23 24 24 23 23 24 24 26 27 29 30 31 32
6 6 5 6 6 6 5 4 3 3 3 3 2 1 1 2 2 2 2 2 3 3 4 6 8 9 9 9 10 10 9 10 10 10 12 13 14 15 15 12 10 10 8 10 11 13 14 13 14 14 15 14 14 12 16 21 26 28 28 26 20 22 22 22 22 23 24 24 24 25 26 27 30 31
5 5 5 6 6 6 5 5 5 4 3 4 3 2 2 2 2 2 2 3 4 5 6 6 7 7 9 12 10 10 9 9 9 10 10 10 10 12 12 11 9 9 8 10 10 10 13 13 13 14 14 13 13 13 10 17 24 26 25 25 22 20 20 21 22 23 23 23 24 24 24 25 26 27
5 5 6 5 5 5 5 5 4 4 4 4 3 3 2 2 2 2 1 2 5 7 9 10 11 12 13 13 13 13 12 10 9 9 9 8 8 9 11 12 11 9 10 9 8 11 13 12 14 14 12 13 12 11 10 11 18 23 22 21 23 21 19 20 21 21 21 21 21 22 22 22 23 23
5 5 7 6 5 5 5 6 5 4 4 4 4 3 2 1 1 1 1 3 4 7 8 9 10 11 11 11 11 10 10 10 9 7 8 9 8 9 8 11 13 12 8 6 10 11 11 13 11 13 13 11 7 8 9 13 13 15 16 19 19 21 21 20 20 20 20 21 21 21 21 20 19 14
5 6 6 7 6 5 5 6 5 5 4 4 5 4 3 2 1 1 1 3 5 5 6 5 5 6 6 6 5 6 10 10 9 7 8 8 7 8 9 10 11 12 7 7 11 12 11 12 11 11 13 12 8 4 10 12 11 9 9 10 10 18 19 19 20 20 20 20 21 21 21 20 16 10
5 5 5 7 9 8 7 6 6 5 5 5 5 4 3 2 2 1 0 1 3 4 5 5 6 6 6 5 5 4 5 5 6 7 7 7 7 8 9 9 9 9 11 10 12 12 11 10 11 9 8 10 10 11 12 11 10 8 8 9 8 13 15 15 13 19 20 20 22 22 22 21 16 10
6 6 5 5 10 9 8 7 7 6 6 7 5 4 3 2 1 1 1 2 3 4 5 5 5 4 3 4 4 4 4 4 5 6 8 7 7 8 8 9 10 10 10 10 15 10 10 10 11 10 8 7 9 11 10 10 8 6 8 8 8 9 8 8 8 9 13 19 21 22 23 23 22 14
5 6 6 5 9 11 9 8 7 8 7 8 5 4 4 3 2 2 1 2 2 3 3 3 3 2 2 3 3 4 5 5 7 7 7 7 7 8 8 8 10 10 11 11 16 10 11 10 10 10 9 9 10 9 10 9 7 5 6 7 7 8 8 7 7 8 9 9 10 15 18 24 23 23
6 5 6 6 12 11 10 9 9 8 9 8 5 6 4 3 3 3 1 1 2 2 2 2 2 2 2 3 4 4 5 6 7 7 7 7 7 8 9 9 9 10 11 10 9 10 9 10 9 9 10 9 10 10 8 8 7 5 4 6 7 7 8 6 7 7 7 7 7 14 14 17 19 21
5 5 6 8 12 11 10 9 9 9 8 5 7 6 5 4 3 2 1 1 1 2 2 2 2 2 2 3 4 4 6 7 8 8 8 7 7 8 7 9 10 11 10 9 8 8 9 9 9 8 9 10 8 8 8 8 7 3 4 3 5 7 7 7 6 7 7 6 6 7 7 8 9 8
4 6 9 10 10 9 9 9 8 7 6 6 6 5 4 4 2 1 1 1 1 1 1 1 2 3 3 3 5 6 7 9 8 6 6 6 7 7 7 8 8 8 6 5 6 7 8 8 8 8 8 8 8 9 8 9 6 3 3 3 3 6 7 6 5 5 6 6 6 7 7 8 8 9
8 9 10 10 10 8 7 5 4 3 3 4 4 4 3 2 1 1 1 1 1 1 1 2 3 3 4 4 5 6 7 6 5 5 6 7 6 6 6 6 6 5 5 4 6 6 7 7 8 7 8 8 8 8 7 7 5 2 3 3 1 2 5 5 5 5 5 6 6 6 7 8 9 8
8 9 8 7 8 6 7 4 3 2 2 2 2 2 1 1 1 1 1 0 1 1 1 2 3 4 5 5 5 5 5 5 5 5 7 7 7 7 7 7 7 6 6 5 6 6 6 7 7 7 7 7 8 7 7 7 5 2 2 3 3 2 2 3 4 5 4 4 5 6 6 7 8 10
7 7 8 7 5 5 5 3 2 1 1 1 1 1 1 1 1 1 2 2 2 2 1 2 3 5 4 4 4 5 5 5 5 6 7 8 8 8 8 8 7 7 7 7 6 5 6 5 7 7 6 5 6 7 6 4 3 2 2 3 3 3 3 3 3 3 4 3 5 6 6 7 8 7
6 5 4 3 4 4 4 4 3 2 2 2 1 1 2 2 2 2 2 1 1 1 1 2 3 4 4 5 4 5 5 5 5 6 7 7 8 8 7 8 8 8 9 9 8 8 7 7 7 7 5 3 3 5 5 4 2 2 2 2 2 3 2 3 3 3 3 3 5 5 6 7 6 7
6 7 6 6 6 5 5 4 4 4 3 3 3 3 4 2 2 2 1 1 1 1 1 2 3 4 5 5 4 5 5 6 6 6 7 7 7 7 8 8 8 8 8 8 9 8 9 9 8 7 4 4 1 3 3 2 2 1 2 2 2 2 2 2 3 4 3 2 3 4 6 6 6 6
6 7 7 6 5 5 4 4 5 4 4 4 3 3 2 3 2 2 2 1 1 1 1 2 3 4 5 5 5 5 5 5 6 5 6 6 6 7 8 8 8 8 8 8 8 8 8 8 8 8 5 4 5 3 8 4 2 1 1 2 2 2 2 2 2 2 2 2 2 4 5 5 5 5
6 6 6 6 6 5 5 6 4 5 4 4 4 3 3 3 2 2 2 1 1 1 1 2 3 4 4 5 5 5 5 5 5 5 6 6 6 6 7 7 8 8 7 7 8 7 7 7 7 6 6 5 4 3 0 8 6 1 1 0 2 1 2 2 2 1 2 3 2 2 3 5 4 4
6 6 6 6 6 6 7 5 5 5 5 4 4 4 4 3 2 2 1 0 2 2 2 2 3 4 5 5 5 5 4 4 4 5 5 5 6 6 7 7 7 7 7 7 7 6 6 6 6 5 5 5 4 3 2 1 6 7 2 1 1 2 1 1 1 2 3 3 3 3 3 4 4 3
7 6 6 6 6 6 5 4 4 5 5 5 4 4 4 3 2 2 2 3 2 2 2 2 3 4 4 5 4 4 3 3 4 4 5 5 5 6 7 8 7 7 7 7 6 6 5 5 5 5 4 4 5 5 4 2 1 4 6 2 1 1 0 0 1 2 2 3 3 3 3 4 3 3
6 6 7 7 7 6 7 6 6 5 5 5 5 4 4 3 3 2 3 3 3 2 2 3 3 3 4 5 5 4 3 3 4 4 4 5 5 6 7 7 8 7 7 7 6 4 4 4 4 4 4 4 4 5 5 5 2 3 4 5 2 1 1 1 1 2 2 3 3 4 4 2 3 4
8 6 6 6 6 5 5 5 5 5 5 5 4 4 4 4 3 3 3 3 3 3 3 3 4 4 4 4 4 4 4 4 4 4 5 5 6 6 6 7 7 7 6 7 6 5 4 4 4 4 5 5 5 5 5 2 1 1 2 4 5 2 1 0 0 2 3 2 2 3 3 2 2 2
6 7 7 7 6 6 6 6 5 5 5 5 4 4 4 4 4 4 3 3 4 4 4 4 4 4 4 4 4 4 4 4 4 4 4 5 6 7 7 8 7 6 6 7 6 5 5 4 6 10 10 6 5 5 4 4 2 0 1 3 5 4 3 2 1 0 2 2 1 1 1 1 2 2
6 7 5 6 7 6 5 5 6 5 5 5 5 5 5 4 4 5 5 6 6 6 5 4 4 4 4 4 3 4 3 4 4 5 5 5 6 6 7 6 6 6 6 7 6 6 6 5 5 5 5 5 5 4 4 3 2 1 1 1 2 4 4 3 3 3 3 2 1 1 1 1 1 1
8 7 7 6 5 5 5 5 5 5 5 5 5 5 5 4 4 5 5 5 5 4 5 4 4 4 4 3 3 3 3 4 5 5 6 5 6 6 6 6 6 7 7 7 7 6 6 5 4 4 4 5 5 4 5 3 1 2 2 2 2 3 3 5 7 8 5 2 0 1 1 1 1 1
7 7 5 5 6 6 6 6 6 6 6 5 5 5 5 5 5 5 5 4 4 5 4 4 5 5 4 4 3 3 4 4 5 5 6 6 6 6 6 6 7 7 7 6 6 5 5 4 3 4 4 3 3 4 4 3 3 2 2 2 3 3 4 3 3 4 5 6 7 3 6 7 5 3
6 7 7 6 7 6 6 6 6 6 6 5 5 6 5 5 5 5 5 5 5 5 5 5 5 5 4 4 4 3 3 4 5 5 5 5 6 6 6 6 6 6 6 5 5 5 4 4 4 3 3 2 2 2 2 3 3 3 3 4 4 4 4 3 4 4 2 1 6 11 3 3 6 8
Wind_Direction
142 125 120 112 119 123 126 136 161 159 180 146 38 332 332 335 314 331 317 324 333 232 93 344 279 26 342 333 325 318 315 321 324 316 312 311 311 315 314 310 308 310 313 318 323 328 327 324 323 323 323 322 322 322 322 321 319 318 318 317 315 316 316 318 317 315 315 313 314 311 308 306 304 301
136 126 121 121 124 138 153 137 136 128 95 124 110 107 22 305 310 313 312 308 286 301 324 326 314 330 332 329 320 313 309 314 316 315 313 312 312 314 306 302 303 308 315 322 330 329 325 323 323 322 322 322 321 322 322 320 318 320 319 319 318 319 321 320 320 318 317 314 310 308 307 306 303 303
135 128 123 124 127 140 133 130 123 120 132 98 152 115 129 95 298 288 275 301 310 26 316 321 326 322 324 323 314 312 312 314 309 313 317 315 314 302 301 304 303 309 315 326 332 331 326 323 323 323 321 320 320 321 320 318 317 320 320 319 322 323 324 322 320 318 315 314 311 308 306 304 299 298
130 127 126 135 138 137 129 117 111 111 102 109 124 101 90 140 322 269 255 263 277 315 307 313 317 323 323 320 319 319 316 312 310 325 314 313 309 309 314 310 310 310 317 325 330 330 327 325 324 323 321 320 317 317 317 315 317 318 320 321 324 325 323 323 321 317 315 313 312 307 304 301 299 297
128 128 127 128 121 126 125 117 121 115 113 119 97 88 175 171 169 265 272 272 288 295 302 309 315 319 323 319 324 320 321 322 324 323 321 319 319 313 312 312 309 316 319 322 330 331 327 327 329 327 323 320 318 317 316 313 317 319 321 321 322 324 323 322 320 317 316 314 311 307 304 300 297 293
127 133 135 128 121 115 110 112 120 127 131 131 120 133 145 297 177 293 285 281 288 297 311 314 315 312 325 313 325 328 326 324 324 323 322 320 319 315 313 315 315 319 320 325 330 331 330 329 329 326 322 319 319 319 318 319 321 322 323 325 324 322 323 322 321 317 317 316 313 309 307 302 299 293
135 138 132 128 124 125 123 123 121 124 125 119 119 105 133 270 319 298 302 297 296 303 308 308 315 323 322 316 321 324 320 316 319 318 320 323 324 321 319 316 313 312 320 326 330 332 331 330 329 325 321 321 323 323 321 322 325 326 326 323 323 323 323 323 319 319 319 319 322 328 325 319 308 298
147 140 129 134 138 141 136 138 135 124 119 127 124 133 64 288 315 313 285 284 294 302 307 317 320 318 316 316 318 318 316 320 322 321 318 322 325 326 323 321 318 317 321 327 330 330 328 328 329 326 324 325 326 324 324 326 327 326 325 324 324 324 324 323 321 324 329 336 344 339 336 329 314 299
138 135 131 139 147 153 140 139 133 121 128 129 124 113 106 349 312 286 288 299 299 300 301 306 310 310 308 311 317 329 333 328 323 320 323 329 326 326 321 314 315 316 322 326 328 330 329 330 329 327 326 327 326 326 327 328 327 326 324 324 325 325 325 322 324 332 336 351 351 349 348 348 351 344
125 126 129 138 147 152 146 136 131 133 138 131 122 121 85 346 293 292 298 297 299 297 295 303 311 322 324 323 325 341 342 332 328 329 330 326 326 327 323 321 319 322 321 326 330 331 330 329 326 326 328 328 329 330 330 329 326 324 326 327 326 325 325 325 332 337 337 357 354 2 3 5 16 28
115 119 124 128 133 133 133 139 143 147 149 138 134 123 121 279 303 302 309 310 305 304 306 307 310 316 321 322 323 340 340 331 331 334 334 329 330 327 324 321 323 327 325 324 326 327 328 327 324 325 328 330 333 334 332 330 329 329 329 328 327 326 322 328 346 355 1 8 5 10 13 9 16 28
115 119 121 124 122 123 133 136 140 157 150 142 144 131 171 282 308 311 315 313 313 313 315 316 319 321 319 321 325 329 337 336 336 349 334 320 321 323 322 321 325 324 331 332 331 332 333 332 328 329 331 333 336 335 335 333 330 331 332 332 327 328 347 6 21 17 16 13 11 16 20 19 20 23
126 124 121 123 118 100 91 88 96 96 109 143 136 131 145 312 305 326 319 312 314 318 320 314 317 319 320 324 331 336 342 343 332 327 327 314 313 316 314 314 320 326 329 331 326 331 337 332 329 331 332 334 336 336 333 334 336 336 338 335 9 38 29 27 26 21 17 16 23 23 23 25 26 27
133 129 122 109 111 117 118 119 122 121 110 80 50 48 356 340 337 322 315 310 321 322 315 315 319 316 315 322 330 327 326 326 324 322 323 319 320 321 317 308 315 339 336 332 326 328 334 331 327 332 333 333 334 334 335 334 335 336 340 353 38 33 29 29 27 23 25 26 27 24 29 30 32 31
141 137 132 131 134 133 132 126 128 135 129 120 99 55 25 2 326 297 303 307 315 312 305 305 307 306 308 314 324 322 323 323 324 319 318 317 320 323 325 319 316 346 350 334 325 323 336 333 327 327 329 330 332 334 331 333 337 339 343 355 32 32 30 29 28 28 30 32 33 32 33 34 34 34
143 145 144 145 152 159 143 138 144 156 172 141 77 58 32 0 316 301 279 291 302 303 298 300 299 304 305 316 319 320 325 323 319 317 317 314 314 314 313 309 307 319 338 327 321 316 332 331 326 325 328 328 330 329 328 336 339 342 344 355 29 33 31 32 29 31 31 32 34 37 37 35 35 36
148 148 148 148 150 137 155 170 155 153 161 142 107 56 11 233 276 289 300 302 296 285 285 289 294 298 315 311 310 319 319 320 314 317 314 313 311 306 301 301 307 313 326 320 320 317 324 329 329 323 326 329 329 327 331 336 341 343 346 357 27 31 32 30 30 30 32 34 37 38 38 39 40 41
150 155 156 153 153 156 170 163 167 166 152 146 132 92 323 256 221 244 269 287 289 290 285 291 291 300 307 301 307 315 319 318 314 313 308 313 312 308 300 303 301 304 319 323 320 309 318 329 329 322 322 329 325 326 327 335 344 344 346 351 23 29 31 31 30 32 31 33 37 41 42 43 44 45
149 153 152 149 148 155 161 158 164 156 155 140 132 144 246 276 297 305 301 322 325 312 303 297 295 299 305 305 309 312 314 307 304 304 304 308 304 299 299 297 298 310 322 324 319 305 317 328 324 321 322 327 323 325 324 341 344 346 345 349 20 28 32 32 34 36 35 35 38 41 44 44 45 47
146 147 147 145 149 154 154 160 160 148 150 146 154 184 217 276 295 290 300 284 300 310 310 308 304 303 302 302 301 305 306 308 308 308 304 298 295 306 309 307 317 314 326 324 313 313 317 323 321 318 320 323 322 323 327 344 342 347 347 349 11 30 31 33 36 38 38 38 41 43 42 46 47 45
150 153 155 152 152 158 162 164 157 148 151 158 170 191 223 255 274 266 248 302 310 310 314 311 308 304 304 305 305 305 307 309 314 312 304 299 316 310 309 311 319 318 328 319 334 327 314 325 323 318 322 322 319 322 335 343 339 346 348 353 7 23 34 35 38 40 40 37 35 34 37 43 42 43
153 153 159 165 160 163 163 160 161 152 158 164 176 185 201 222 267 251 272 311 310 317 318 313 306 305 303 303 304 304 309 314 318 305 292 302 308 299 302 304 311 310 315 320 348 323 316 321 323 320 316 311 318 325 339 338 338 346 342 343 5 14 27 37 37 39 38 36 34 34 35 35 43 45
157 158 174 182 180 173 164 166 163 165 170 172 182 185 192 197 227 266 320 308 314 322 327 320 321 310 307 308 311 310 309 306 302 291 289 295 294 296 297 302 310 313 317 339 343 321 319 325 327 335 327 324 320 341 341 332 336 345 341 337 344 358 9 22 37 40 40 39 38 37 38 41 43 45
170 173 177 185 192 177 176 172 171 173 173 178 179 187 185 201 224 309 13 318 303 295 292 294 296 291 295 298 300 300 302 304 289 286 288 288 290 290 294 297 297 291 299 320 331 322 315 323 318 330 322 317 319 333 329 328 328 347 349 344 343 353 0 4 9 29 39 42 41 43 45 46 50 55
170 176 181 179 189 184 180 175 177 172 175 175 174 183 174 169 128 108 205 285 289 270 266 268 267 278 294 297 293 295 293 300 296 292 294 289 286 288 289 294 296 291 295 307 322 322 316 321 313 321 316 307 296 311 315 315 319 0 358 354 347 353 357 11 14 15 23 39 45 47 49 49 49 49
179 180 174 178 182 185 180 177 177 176 175 171 172 167 150 127 91 124 216 233 253 253 264 272 273 276 292 295 296 292 290 294 300 293 291 290 289 283 281 288 294 296 299 307 314 321 318 311 314 312 312 313 305 308 310 312 315 7 8 5 359 357 0 1 12 28 34 36 34 41 46 52 52 53
172 171 173 174 177 181 175 174 175 179 173 176 171 159 145 139 124 147 180 222 237 250 259 267 275 283 290 298 297 292 302 307 303 300 298 288 280 283 283 283 283 283 290 298 308 317 313 302 308 304 305 306 302 308 304 310 320 340 10 14 2 1 358 359 17 27 31 31 32 31 38 41 45 47
165 168 174 179 178 175 173 174 175 175 178 177 157 153 147 141 134 156 171 211 227 250 252 262 280 284 290 293 290 295 305 302 299 290 281 277 277 277 281 278 275 277 281 288 303 310 308 301 297 295 301 302 301 303 302 299 303 346 359 11 20 11 1 3 9 16 19 23 24 23 27 28 24 30
168 171 171 175 172 169 169 169 168 168 163 153 152 147 144 146 155 152 180 201 239 244 257 280 284 284 283 287 282 299 297 293 286 286 299 295 284 279 275 274 280 279 276 273 293 305 309 304 296 294 296 299 300 299 301 308 317 347 356 352 7 11 6 3 9 16 21 26 30 29 28 26 28 31
168 169 170 170 164 158 158 166 192 198 178 160 153 145 134 147 140 165 180 217 223 251 274 278 284 288 292 290 295 296 297 294 300 311 316 318 308 320 314 310 302 294 294 296 306 309 312 308 301 292 291 297 304 304 310 312 308 7 3 20 359 47 20 7 6 11 26 35 35 37 37 33 33 31
172 170 170 167 163 161 169 165 150 123 125 177 185 165 156 139 152 168 197 221 267 273 280 283 290 293 294 296 296 303 308 304 311 323 322 323 323 327 324 318 312 316 314 313 314 314 307 293 296 292 286 297 304 306 313 309 305 332 11 21 18 70 1 10 18 19 22 46 51 51 46 39 37 34
159 161 160 154 150 144 150 144 151 184 220 232 231 213 178 170 157 205 222 242 233 239 260 278 282 288 288 298 306 314 309 311 320 330 328 329 324 327 326 323 323 322 319 323 322 318 309 302 307 303 286 289 299 310 308 303 316 336 23 44 59 62 45 26 32 19 9 46 64 57 45 48 41 34
122 124 143 144 165 181 176 173 184 189 204 222 208 238 251 202 199 198 190 193 215 228 264 275 288 293 298 298 302 312 315 314 321 336 329 325 324 322 323 320 319 324 325 326 328 326 326 320 312 296 276 282 290 304 305 300 339 352 12 37 70 69 57 33 16 15 357 65 70 68 64 58 46 47
143 168 172 182 187 184 181 184 192 194 199 203 212 214 217 218 213 200 194 202 210 246 268 284 286 289 295 295 301 317 321 323 328 331 327 322 324 320 323 320 319 321 322 323 324 327 330 325 322 318 243 210 78 39 349 324 328 6 17 19 37 69 49 38 28 356 15 61 83 83 76 71 57 58
171 172 180 188 191 192 182 189 194 186 188 202 203 213 213 222 209 209 204 201 209 249 254 281 275 276 283 290 304 308 313 319 324 330 333 324 322 318 316 315 316 321 324 323 324 327 330 329 329 328 309 215 211 140 65 30 309 25 62 40 16 44 59 50 38 27 28 53 65 84 88 80 65 62
179 179 184 187 193 182 187 202 191 187 187 190 195 197 209 217 204 199 205 189 228 240 254 263 269 278 285 294 295 300 309 315 319 327 327 325 321 313 310 309 310 314 318 320 323 325 330 327 331 331 326 315 301 283 128 41 31 340 345 57 31 47 81 69 28 27 34 48 40 67 82 84 73 59
181 187 194 195 186 184 197 190 185 188 184 184 193 195 195 199 199 201 176 236 238 231 236 255 267 275 280 283 290 298 306 322 323 322 316 318 312 308 309 308 311 313 315 317 320 320 330 326 328 330 326 321 314 315 350 60 45 47 9 52 56 34 86 71 88 60 46 43 53 51 73 89 84 65
195 183 194 197 194 194 190 186 180 186 186 188 191 191 194 196 194 199 212 227 228 224 230 243 258 263 271 283 286 300 317 322 315 310 312 312 310 310 309 308 311 313 313 313 316 322 325 316 322 325 328 322 311 320 344 16 25 32 33 20 69 93 51 33 72 73 65 52 62 68 87 85 81 81
199 187 193 195 194 188 190 191 186 188 179 181 189 186 186 185 186 197 215 224 223 220 229 237 248 253 270 275 281 293 304 312 316 313 308 305 306 304 307 308 310 309 310 308 313 312 325 316 319 318 321 310 305 317 323 314 7 26 43 60 87 90 21 14 91 86 88 90 86 84 69 50 52 47
206 193 196 192 196 189 188 179 189 188 181 184 182 180 176 189 188 195 212 223 223 230 229 233 236 247 259 268 279 289 293 292 296 300 302 301 300 300 302 309 307 304 303 302 309 313 319 311 313 318 311 301 297 294 293 312 60 40 46 48 60 82 96 307 106 116 103 90 117 118 95 97 97 82
191 199 208 196 194 188 183 187 185 180 179 175 174 176 186 190 194 205 203 217 226 229 234 235 237 235 248 259 275 284 292 301 301 297 298 299 296 295 299 305 301 300 300 297 296 302 307 315 306 295 287 276 276 275 265 240 231 110 62 57 63 84 107 100 98 90 124 124 116 120 118 110 120 168
192 205 197 191 195 189 177 181 181 178 175 170 173 183 190 197 202 207 219 229 233 237 241 238 232 231 243 251 260 274 281 289 293 293 294 296 296 296 297 299 298 301 299 293 295 295 303 307 291 280 263 257 262 270 271 267 245 178 106 94 75 75 90 115 142 124 114 107 115 154 150 158 178 213
202 205 202 192 183 178 183 180 179 174 173 171 178 182 184 193 196 205 214 214 215 220 227 229 237 238 242 246 257 267 276 281 284 289 290 289 288 292 295 295 296 295 291 287 288 291 302 300 290 292 278 258 257 259 268 253 219 165 174 155 123 105 93 105 124 129 138 130 46 270 301 289 234 227
196 201 195 173 183 188 184 179 178 176 175 175 178 180 187 190 200 204 200 204 207 217 221 228 235 232 236 241 252 256 258 266 281 285 288 289 287 287 287 291 291 291 291 290 291 300 307 310 306 305 294 276 273 259 245 208 191 173 167 147 142 139 135 144 132 121 108 75 43 345 240 239 254 283
189 197 191 184 182 183 179 177 173 171 170 173 179 189 191 197 202 198 202 200 208 214 220 226 226 228 228 237 241 251 257 274 279 281 285 285 283 282 282 284 289 291 288 290 296 299 313 315 309 306 291 289 283 267 232 219 193 162 161 163 159 154 155 162 163 157 149 101 18 2 8 224 252 252